Location: ???????
(55.2903°N, 39.1554°E)
Time: 12:59:24
(UTC+00:00)

Cosmos 1420 Rocket - Pass Details

Date: 14 April 2024
Orbit: 752 x 779 km, 74.0° (Epoch: 24 May)

Event Time Altitude Azimuth Distance (km) Brightness Sun altitude
Rises 00:28:04 0° 332° (NNW) 3,236 7.4 -14.7°
Reaches altitude 10° 00:30:26 10° 333° (NNW) 2,310 6.7 -14.4°
Maximum altitude 00:35:42 84° 63° (ENE) 779 4.1 -13.9°
Drops below altitude 10° 00:40:58 10° 151° (SSE) 2,314 6.4 -13.3°
Sets 00:43:21 0° 152° (SSE) 3,240 7.1 -13.0°
